Regional Weather Roundup
Issued by NWS

Home | Current Version | Previous Version | Graphics & Text | Print | Product List | Glossary On
Versions: 1 2 3 4 5 6 7 8 9 10 11 12 13 14 15 16 17 18 19 20 21 22 23 24 25 26 27 28 29 30 31 32 33 34 35 36 37 38 39 40 41 42 43 44 45 46 47 48 49 50
000
ASUS43 KMPX 301301
RWRMN
WEATHER ROUNDUP FOR MINNESOTA
NATIONAL WEATHER SERVICE TWIN CITIES/CHANHASSEN MN
800 AM CDT TUE SEP 30 2014


NOTE: "FAIR" INDICATES FEW OR NO CLOUDS BELOW 12,000 FEET WITH NO
SIGNIFICANT WEATHER AND/OR OBSTRUCTIONS TO VISIBILITY. N/A MEANS
CURRENT SKY AND/OR WEATHER CONDITIONS ARE NOT AVAILABLE.

MNZ060>063-068>070-301400-
   Twin Cities Metro

CITY           SKY/WX    TMP DP  RH WIND       PRES   REMARKS
TWIN CITIES    CLOUDY    42  39  89 E13       30.07F
ST PAUL        CLOUDY    43  39  86 E8        30.09F
CRYSTAL        CLOUDY    44  38  79 SE9       30.06S
BLAINE         CLOUDY    43  43 100 E9        30.08S
LAKEVILLE      CLOUDY    39  39 100 E9        30.06F
EDEN PRAIRIE   CLOUDY    43  40  89 E12       30.05F
SOUTH ST PAUL  CLOUDY    42  38  85 E10       30.08S
LAKE ELMO      CLOUDY    41  39  93 E8        30.09S
$$
MNZ001>005-007-008-013>017-022>024-027-028-301400-
   Northwest Minnesota

CITY           SKY/WX    TMP DP  RH WIND       PRES   REMARKS
BEMIDJI        CLOUDY    42  40  94 SE15      30.03S
HALLOCK        MOCLDY    41  39  93 SE8       29.97F
ROSEAU         CLOUDY    45  39  81 SE12      30.02S
WARROAD        CLOUDY    45  39  81 SE14G21   30.03F
THIEF RVR FALL CLOUDY    43  39  87 SE14      29.99S
CROOKSTON      CLEAR     41  39  93 SE12      29.98S
FOSSTON        CLOUDY    41  39  93 SE10G16   30.00S
DETROIT LAKES  CLOUDY    43  41  93 SE15G21   29.99F
PARK RAPIDS    CLOUDY    41  38  89 SE14      30.03S
MAHNOMEN       PTSUNNY   41  39  93 SE13      29.99R
$$
MNZ006-009>011-018-025>026-301400-
   North Central Minnesota

CITY           SKY/WX    TMP DP  RH WIND       PRES   REMARKS
BAUDETTE       CLOUDY    43  39  86 SE9       30.05F
FLAG ISLAND    CLOUDY    45  41  87 SE9       30.05F
INTL FALLS     CLOUDY    42  39  89 SE9       30.09F
WASKISH        CLOUDY    43  39  87 CALM      30.05F
BIG FORK       CLOUDY    43  39  87 SE9       30.09S
LONGVILLE      CLOUDY    39  39 100 SE7       30.05S
GRAND RAPIDS   CLOUDY    39  36  87 SE6       30.08S
CRANE LAKE     CLOUDY    39  37  93 CALM      30.15S
ORR            CLOUDY    39  37  93 CALM      30.09F
COOK           CLOUDY    39  37  93 E5        30.12F
WALKER         CLOUDY    40  38  93 SE7       30.04S
$$
MNZ012-019>021-037-301400-
   Northeast Minnesota

CITY           SKY/WX    TMP DP  RH WIND       PRES   REMARKS
DULUTH         CLOUDY    42  38  85 E14       30.11F
ELY            CLOUDY    37  36  93 E6        30.14S FOG
HIBBING        CLOUDY    42  38  85 E9        30.11F
EVELETH        CLOUDY    39  37  93 SE8       30.12F
DULUTH HARBOR  CLOUDY    46  43  87 E13       30.15S
TWO HARBORS    CLOUDY    43  37  81 E6        30.12F
SILVER BAY     MOCLDY    39  39 100 NE6       30.14S
GRAND MARAIS     N/A     45  38  76 NE3       30.18S
G MARAIS ARPRT CLOUDY    37  34  87 CALM      30.16S
$$
MNZ029>031-032-039>041-046>048-054>057-064-301400-
   West Central Minnesota

CITY           SKY/WX    TMP DP  RH WIND       PRES   REMARKS
FERGUS FALLS   CLOUDY    45  41  87 SE15      29.98S
WHEATON        CLOUDY    43  39  87 SE13G23   29.96F
MORRIS         CLOUDY    45  43  93 E15G23    29.95F
ALEXANDRIA     CLOUDY    40  38  93 E15       30.00F
ELBOW LAKE     CLOUDY    42  41  97 SE14G20   29.97S
WADENA         CLOUDY    39  37  93 E12       30.02F FOG
GLENWOOD       FOG       41  39  93 E14G20    30.00F VSB 1/4
APPLETON       CLOUDY    45  43  93 SE14G20   29.96F
BENSON         CLOUDY    43  43 100 SE9       29.97F
ORTONVILLE     CLOUDY    45  39  81 SE13G18   29.94S
MADISON        PTCLDY    48  45  87 SE14G20   29.95F
WILLMAR        CLOUDY    45  41  87 E15       30.02R
$$
MNZ033>034-036-042>043-049>051-058-059-301400-
   Central Minnesota

CITY           SKY/WX    TMP DP  RH WIND       PRES   REMARKS
ST CLOUD       CLOUDY    44  40  85 E7        30.06S
SAUK CENTRE    CLOUDY    39  38  98 E8        30.04S FOG
PAYNESVILLE    CLOUDY    39  38  99 NE15G22   30.03F
AITKIN         CLOUDY    43  37  81 E5        30.07R
PINE RIVER     CLOUDY    39  39 100 SE7       30.08F
BRAINERD       CLOUDY    42  40  92 SE8       30.06S
STAPLES        CLOUDY    39  37  93 SE8       30.05R
LONG PRAIRIE   CLOUDY    37  37 100 E10       30.04F FOG
LITTLE FALLS   CLOUDY    41  37  87 E7        30.06S
LITCHFIELD     CLOUDY    43  43 100 E10G20    30.03F
BUFFALO        CLOUDY    42  38  87 E9        30.06F
MAPLE LAKE     CLOUDY    42  41  95 E13       30.07S
$$
MNZ037-044-045-052-053-301400-
   East Central Minnesota

CITY           SKY/WX    TMP DP  RH WIND       PRES   REMARKS
MORA           CLOUDY    39  36  87 E8        30.10S
CAMBRIDGE      CLOUDY    45  36  70 E9        30.07R
RUSH CITY      LGT RAIN  41  39  90 E6        30.09S
MOOSE LAKE     CLOUDY    41  37  87 E5        30.09S
HINCKLEY       CLOUDY    41  41 100 E8        30.10S
CLOQUET        CLOUDY    43  39  87 E12G20    30.10F
$$
MNZ071>073-080-081-089-090-097-098-301400-
   Southwest Minnesota

CITY           SKY/WX    TMP DP  RH WIND       PRES   REMARKS
MONTEVIDEO     CLOUDY    45  43  93 SE15G23   29.98F
GRANITE FALLS  CLOUDY    44  41  91 E12G18    29.99S
CANBY          CLOUDY    46  44  91 SE12      29.94F
MARSHALL       CLOUDY    46  39  76 SE20      29.94S
REDWOOD FALLS  CLOUDY    44  42  93 E12       29.99F
OLIVIA         CLOUDY    43  39  87 E14G22    30.00S
PIPESTONE      CLOUDY    50  46  87 SE14G20   29.89F
WINDOM         CLOUDY    46  45  93 E12G17    29.98S
WORTHINGTON    CLOUDY    48  46  93 E13       29.95S
JACKSON        CLOUDY    48  45  87 E10       29.98S
TRACY          CLOUDY    47  45  93 E13       29.96S
SLAYTON        CLOUDY    47  46  97 E12       29.94F
$$
MNZ065>067-074>077-082>085-091>093-301400-
   South Central Minnesota

CITY           SKY/WX    TMP DP  RH WIND       PRES   REMARKS
MANKATO        CLOUDY    43  37  81 E12G17    30.03S
NEW ULM        PTCLDY    43  43 100 E12       30.02R
ST JAMES       CLOUDY    46  45  93 E10       30.01F
FAIRMONT       CLOUDY    48  43  81 E13       29.98F
GLENCOE        CLOUDY    43  39  86 E14       30.03F
FARIBAULT      CLOUDY    45  39  81 E10       30.05S
OWATONNA       CLOUDY    43  39  87 E12       30.04F FOG
WASECA         CLOUDY    41  36  81 E9G17     30.06R
ALBERT LEA     CLOUDY    45  45 100 E8        30.03S FOG
$$
MNZ078>079-086>088-094>096-301400-
   Southeast Minnesota

CITY           SKY/WX    TMP DP  RH WIND       PRES   REMARKS
ROCHESTER      FOG       41  41 100 E13       30.06S VSB 1/2
RED WING       CLOUDY    43  37  81 E9        30.07S
STANTON        CLOUDY    43  40  88 E8        30.06F
DODGE CENTER   FOG       43  43 100 E10       30.05S VSB 1
WINONA         CLOUDY    43  39  87 E10       30.09F
AUSTIN         CLOUDY    43  43 100 E9        30.04S
PRESTON        CLOUDY    42  40  94 E7        30.07S
$$
ABBREVIATIONS USED IN REMARKS
   TC - TEMPERATURES IN CELSIUS
  WCI - WIND CHILL INDEX
   HX - HEAT INDEX
  VSB - VISIBILITY
$$



USA.gov is the U.S. government's official web portal to all federal, state and local government web resources and services.